Date String (YYYY-MM-DD hh:mm:ss) UTC,Instrument flags,Ambient pressure (hPa),Sample flow (lpm),Bypass flow (lpm),Sample temperature (°C),Ambient temperature (°C),ASC tube jacket temperature (°C),LED temperature (°C),Box temperature (°C),Sample RH (%),Span deviation,Mass concentration (μg/m³),Mass concentration (μg/m³),Mass concentration (μg/m³)
DateTimeUTC,F1_M11,P_M11,Q1_M11,Q2_M11,T1_M11,T2_M11,T3_M11,T4_M11,T5_M11,U1_M11,ZSPAN_M11,X0_M11,X2_M11,X1_M11
2022-12-02 23:00:00,,0824.8,5.00,0.00,21.6,22.1,00.0,30.3,23.6,08.6,0000.0,0004.53,0000.88,0000.53
2022-12-02 23:01:00,,0824.8,4.98,0.00,21.6,21.9,00.0,30.4,23.7,08.7,0000.0,0004.27,0000.89,0000.53
2022-12-02 23:02:00,,0824.9,5.00,0.00,21.6,21.3,00.0,30.4,23.6,08.8,0000.0,0004.34,0000.91,0000.53
2022-12-02 23:03:00,,0824.9,5.00,0.00,21.6,20.9,00.0,30.5,23.5,08.7,0000.0,0004.54,0000.92,0000.52
2022-12-02 23:04:00,,0824.9,5.00,0.00,21.6,20.7,00.0,30.5,23.3,08.7,0000.0,0003.80,0000.89,0000.52
2022-12-02 23:05:00,,0824.9,5.00,0.00,21.6,20.4,00.0,30.5,23.3,08.8,0000.0,0003.57,0000.92,0000.53
2022-12-02 23:06:00,,0824.9,5.00,0.00,21.5,20.2,00.0,30.5,23.2,08.7,0000.0,0003.58,0000.92,0000.53
2022-12-02 23:07:00,,0825.1,5.00,0.00,21.5,20.1,00.0,30.5,23.1,08.6,0000.0,0003.75,0000.96,0000.53
2022-12-02 23:08:00,,0825.1,5.00,0.00,21.5,20.0,00.0,30.5,23.1,08.7,0000.0,0003.74,0000.98,0000.53
2022-12-02 23:09:00,,0825.2,5.00,0.00,21.4,19.9,00.0,30.4,23.0,08.8,0000.0,0004.15,0000.98,0000.53
2022-12-02 23:10:00,,0825.1,5.00,0.00,21.4,19.9,00.0,30.4,23.0,08.8,0000.0,0004.07,0001.00,0000.53
2022-12-02 23:11:00,,0825.2,5.00,0.00,21.4,19.7,00.0,30.4,22.9,08.6,0000.0,0004.17,0001.00,0000.53
2022-12-02 23:12:00,,0825.2,5.00,0.00,21.3,19.7,00.0,30.4,22.9,08.8,0000.0,0004.25,0001.01,0000.52
2022-12-02 23:13:00,,0825.3,5.00,0.00,21.3,20.2,00.0,30.3,23.1,08.8,0000.0,0004.18,0000.99,0000.52
2022-12-02 23:14:00,,0825.3,5.00,0.00,21.5,21.2,00.0,30.3,23.4,08.7,0000.0,0003.98,0000.97,0000.52
2022-12-02 23:15:00,,0825.3,5.00,0.00,21.6,22.0,00.0,30.3,23.6,08.7,0000.0,0004.00,0000.99,0000.51
2022-12-02 23:16:00,,0825.4,4.99,0.00,21.6,21.7,00.0,30.4,23.6,08.7,0000.0,0003.76,0000.94,0000.50
2022-12-02 23:17:00,,0825.4,4.99,0.00,21.6,21.2,00.0,30.5,23.6,08.8,0000.0,0003.74,0000.93,0000.50
2022-12-02 23:18:00,,0825.4,4.99,0.00,21.6,20.9,00.0,30.5,23.4,08.7,0000.0,0003.57,0000.90,0000.50
2022-12-02 23:19:00,,0825.4,5.01,0.00,21.6,20.6,00.0,30.5,23.3,08.5,0000.0,0003.05,0000.89,0000.50
2022-12-02 23:20:00,,0825.4,5.00,0.00,21.6,20.4,00.0,30.5,23.2,08.6,0000.0,0003.03,0000.88,0000.51
2022-12-02 23:21:00,,0825.4,5.00,0.00,21.5,20.2,00.0,30.5,23.2,08.6,0000.0,0003.12,0000.86,0000.51
2022-12-02 23:22:00,,0825.4,5.00,0.00,21.5,20.0,00.0,30.5,23.1,08.5,0000.0,0003.32,0000.84,0000.51
2022-12-02 23:23:00,,0825.4,5.00,0.00,21.5,19.9,00.0,30.5,23.0,08.6,0000.0,0003.95,0000.83,0000.51
2022-12-02 23:24:00,,0825.4,5.00,0.00,21.4,19.8,00.0,30.4,23.0,08.5,0000.0,0004.27,0000.85,0000.51
2022-12-02 23:25:00,,0825.4,5.00,0.00,21.4,19.7,00.0,30.4,22.9,08.7,0000.0,0004.46,0000.83,0000.51
2022-12-02 23:26:00,,0825.5,5.00,0.00,21.4,19.9,00.0,30.4,23.0,08.7,0000.0,0004.42,0000.82,0000.52
2022-12-02 23:27:00,,0825.4,5.00,0.00,21.4,20.9,00.0,30.3,23.3,08.8,0000.0,0004.92,0000.81,0000.52
2022-12-02 23:28:00,,0825.4,4.99,0.00,21.6,21.8,00.0,30.4,23.5,08.4,0000.0,0005.05,0000.81,0000.52
2022-12-02 23:29:00,,0825.4,4.99,0.00,21.7,21.9,00.0,30.4,23.7,08.4,0000.0,0005.21,0000.83,0000.52
2022-12-02 23:30:00,,0825.3,4.99,0.00,21.7,21.4,00.0,30.5,23.6,08.3,0000.0,0005.10,0000.83,0000.51
2022-12-02 23:31:00,,0825.3,5.00,0.00,21.6,21.0,00.0,30.5,23.4,08.1,0000.0,0004.08,0000.80,0000.50
2022-12-02 23:32:00,,0825.3,5.00,0.00,21.6,20.7,00.0,30.5,23.3,08.3,0000.0,0004.03,0000.79,0000.50
2022-12-02 23:33:00,,0825.3,5.00,0.00,21.6,20.4,00.0,30.5,23.2,08.4,0000.0,0004.22,0000.79,0000.50
2022-12-02 23:34:00,,0825.4,4.99,0.00,21.6,20.2,00.0,30.5,23.2,08.3,0000.0,0003.52,0000.78,0000.49
2022-12-02 23:35:00,,0825.3,4.99,0.00,21.5,20.0,00.0,30.5,23.1,08.4,0000.0,0003.37,0000.78,0000.50
2022-12-02 23:36:00,,0825.3,4.99,0.00,21.5,19.9,00.0,30.5,23.0,08.4,0000.0,0003.09,0000.79,0000.50
2022-12-02 23:37:00,,0825.3,4.99,0.00,21.4,19.8,00.0,30.5,23.0,08.4,0000.0,0003.12,0000.81,0000.50
2022-12-02 23:38:00,,0825.3,5.01,0.00,21.4,19.7,00.0,30.4,22.9,08.5,0000.0,0002.63,0000.84,0000.50
2022-12-02 23:39:00,,0825.3,5.01,0.00,21.3,19.7,00.0,30.4,22.9,08.5,0000.0,0002.39,0000.83,0000.51
2022-12-02 23:40:00,,0825.3,4.99,0.00,21.4,20.5,00.0,30.4,23.1,08.4,0000.0,0002.22,0000.80,0000.51
2022-12-02 23:41:00,,0825.3,4.99,0.00,21.5,21.5,00.0,30.3,23.5,08.4,0000.0,0002.13,0000.78,0000.52
2022-12-02 23:42:00,,0825.3,5.00,0.00,21.6,22.1,00.0,30.4,23.7,08.3,0000.0,0002.20,0000.80,0000.52
2022-12-02 23:43:00,,0825.3,4.99,0.00,21.7,21.6,00.0,30.5,23.6,08.3,0000.0,0002.13,0000.79,0000.51
2022-12-02 23:44:00,,0825.3,5.00,0.00,21.6,21.1,00.0,30.5,23.5,08.3,0000.0,0001.86,0000.79,0000.51
2022-12-02 23:45:00,,0825.3,5.00,0.00,21.6,20.7,00.0,30.5,23.3,08.3,0000.0,0001.60,0000.80,0000.51
2022-12-02 23:46:00,,0825.3,5.00,0.00,21.6,20.4,00.0,30.5,23.2,08.3,0000.0,0001.49,0000.79,0000.50
2022-12-02 23:47:00,,0825.3,5.00,0.00,21.5,20.1,00.0,30.5,23.1,08.4,0000.0,0001.45,0000.78,0000.50
2022-12-02 23:48:00,,0825.3,5.00,0.00,21.5,19.9,00.0,30.5,23.0,08.4,0000.0,0001.53,0000.78,0000.50
2022-12-02 23:49:00,,0825.4,5.00,0.00,21.4,19.7,00.0,30.5,23.0,08.3,0000.0,0001.61,0000.79,0000.50
2022-12-02 23:50:00,,0825.4,5.00,0.00,21.4,19.6,00.0,30.4,22.9,08.4,0000.0,0001.62,0000.79,0000.50
2022-12-02 23:51:00,,0825.4,5.01,0.00,21.4,20.3,00.0,30.4,23.1,08.5,0000.0,0002.71,0000.80,0000.49
2022-12-02 23:52:00,,0825.4,5.00,0.00,21.5,21.5,00.0,30.4,23.4,08.5,0000.0,0002.75,0000.79,0000.49
2022-12-02 23:53:00,,0825.4,4.99,0.00,21.6,22.1,00.0,30.4,23.7,08.4,0000.0,0002.76,0000.79,0000.50
2022-12-02 23:54:00,,0825.4,4.98,0.00,21.7,21.7,00.0,30.5,23.7,08.3,0000.0,0002.79,0000.81,0000.50
2022-12-02 23:55:00,,0825.3,5.00,0.00,21.7,21.2,00.0,30.5,23.6,08.2,0000.0,0002.78,0000.79,0000.50
2022-12-02 23:56:00,,0825.3,5.00,0.00,21.7,20.8,00.0,30.6,23.5,08.3,0000.0,0002.71,0000.79,0000.51
2022-12-02 23:57:00,,0825.3,5.00,0.00,21.6,20.6,00.0,30.6,23.3,08.3,0000.0,0002.70,0000.79,0000.51
2022-12-02 23:58:00,,0825.3,5.01,0.00,21.6,20.3,00.0,30.6,23.2,08.4,0000.0,0002.77,0000.80,0000.50
2022-12-02 23:59:00,,0825.3,5.00,0.00,21.6,20.2,00.0,30.5,23.2,08.4,0000.0,0002.70,0000.79,0000.49
